Location: Newark
(48.5667°N, 7.8167°E)
Time: 11:29:08
(UTC+00:00)

ISS - Pass Details

Date: 24 September 2021
Orbit: 417 x 423 km, 51.6° (Epoch: 24 October)

Event Time Altitude Azimuth Distance (km) Brightness Sun altitude
Rises 18:53:41 0° 274° (W) 2,363 1.7 -15.8°
Reaches altitude 10° 18:55:49 10° 281° (W) 1,500 0.4 -16.1°
Maximum altitude 18:59:06 48° 357° (N) 559 -3.0 -16.6°
Enters shadow 19:00:23 30° 53° (NE) 781 -2.7 -16.8°
